| time (UTC) | temp F | wind direction | speed knots | gust knots | rain 1hr in | rain 24hr in | rain mn in | humidity % | barometer mb |
| 20260904052432 | 63 | 180 | 0.0 | 0.0 | 0.00 | 0.00 | 0.00 | 99 | 1008.7 |
| 20260904051928 | 63 | 181 | 0.0 | 0.0 | 0.00 | 0.00 | 0.00 | 99 | 1008.7 |
| 20260904051424 | 63 | 181 | 0.0 | 0.0 | 0.00 | 0.00 | 0.00 | 99 | 1008.7 |
| 20260904050923 | 62 | 180 | 0.0 | 0.0 | 0.00 | 0.00 | 0.00 | 99 | 1008.8 |
| 20260904050420 | 62 | 179 | 0.0 | 0.0 | 0.00 | 0.00 | 0.00 | 99 | 1008.7 |
| 20260904045920 | 63 | 179 | 0.0 | 0.0 | 0.00 | 0.00 | 0.00 | 99 | 1009.0 |
| 20260904045415 | 63 | 179 | 0.0 | 0.0 | 0.00 | 0.00 | 0.00 | 99 | 1009.3 |
| 20260904044915 | 63 | 187 | 0.0 | 0.0 | 0.00 | 0.00 | 0.00 | 99 | 1008.8 |
| 20260904044411 | 62 | 179 | 0.0 | 0.0 | 0.00 | 0.00 | 0.00 | 99 | 1008.9 |
| 20260904043907 | 62 | 179 | 0.0 | 0.0 | 0.00 | 0.00 | 0.00 | 99 | 1009.0 |
| 20260904043404 | 62 | 178 | 0.0 | 0.0 | 0.00 | 0.00 | 0.00 | 99 | 1009.0 |
| 20260904042859 | 62 | 178 | 0.0 | 0.0 | 0.00 | 0.00 | 0.00 | 99 | 1009.1 |
| 20260904042355 | 62 | 177 | 0.0 | 0.0 | 0.00 | 0.00 | 0.00 | 99 | 1009.1 |
| 20260904041849 | 62 | 177 | 0.0 | 0.0 | 0.00 | 0.00 | 0.00 | 99 | 1009.2 |
| 20260904041346 | 62 | 178 | 0.0 | 0.0 | 0.00 | 0.00 | 0.00 | 99 | 1009.3 |
| 20260904040842 | 62 | 178 | 0.0 | 0.0 | 0.00 | 0.00 | 0.00 | 99 | 1009.3 |
| 20260904040337 | 62 | 178 | 0.0 | 0.0 | 0.00 | 0.00 | 0.00 | 99 | 1009.2 |
| 20260904035833 | 62 | 180 | 0.0 | 0.0 | 0.00 | 0.00 | 0.00 | 99 | 1009.4 |
| 20260904035329 | 62 | 180 | 0.0 | 0.0 | 0.00 | 0.00 | 0.00 | 99 | 1009.3 |
| 20260904034827 | 61 | 180 | 0.0 | 0.0 | 0.00 | 0.00 | 0.00 | 99 | 1009.3 |
| 20260904034323 | 61 | 180 | 0.0 | 0.0 | 0.00 | 0.00 | 0.00 | 99 | 1009.4 |
| 20260904033819 | 61 | 180 | 0.0 | 0.0 | 0.00 | 0.00 | 0.00 | 99 | 1009.2 |
| 20260904033315 | 61 | 180 | 0.0 | 0.0 | 0.00 | 0.00 | 0.00 | 99 | 1009.5 |
| 20260904032811 | 62 | 181 | 0.0 | 0.0 | 0.00 | 0.00 | 0.00 | 99 | 1009.3 |
| 20260904032310 | 62 | 182 | 0.0 | 0.0 | 0.00 | 0.00 | 0.00 | 99 | 1009.5 |
| 20260904031805 | 62 | 182 | 0.0 | 0.0 | 0.00 | 0.00 | 0.00 | 99 | 1009.6 |
| 20260904031300 | 62 | 182 | 0.0 | 0.0 | 0.00 | 0.00 | 0.00 | 99 | 1009.4 |
| 20260904030756 | 62 | 182 | 0.0 | 0.0 | 0.00 | 0.00 | 0.00 | 99 | 1009.3 |
| 20260904030251 | 62 | 179 | 0.0 | 0.0 | 0.00 | 0.00 | 0.00 | 99 | 1009.3 |
| 20260904025747 | 63 | 179 | 0.0 | 0.0 | 0.00 | 0.00 | 0.00 | 99 | 1009.4 |
| 20260904025242 | 63 | 179 | 0.0 | 0.0 | 0.00 | 0.00 | 0.00 | 99 | 1009.5 |
| 20260904024732 | 63 | 179 | 0.0 | 0.0 | 0.00 | 0.00 | 0.00 | 99 | 1009.7 |
| 20260904024227 | 63 | 179 | 0.0 | 0.0 | 0.00 | 0.00 | 0.00 | 99 | 1009.7 |
| 20260904023718 | 63 | 179 | 0.0 | 0.0 | 0.00 | 0.00 | 0.00 | 99 | 1009.8 |
| 20260904023214 | 63 | 179 | 0.0 | 0.0 | 0.00 | 0.00 | 0.00 | 99 | 1009.6 |
| 20260904022713 | 63 | 179 | 0.0 | 0.0 | 0.00 | 0.00 | 0.00 | 99 | 1009.9 |
| 20260904022210 | 63 | 179 | 0.0 | 0.0 | 0.00 | 0.00 | 0.00 | 99 | 1009.8 |
| 20260904021706 | 63 | 179 | 0.0 | 0.0 | 0.00 | 0.00 | 0.00 | 99 | 1009.8 |
| 20260904021201 | 63 | 179 | 0.0 | 0.0 | 0.00 | 0.00 | 0.00 | 99 | 1010.2 |
| 20260904020657 | 63 | 179 | 0.0 | 0.0 | 0.00 | 0.00 | 0.00 | 99 | 1010.1 |
| 20260904020156 | 63 | 179 | 0.0 | 0.0 | 0.00 | 0.00 | 0.00 | 99 | 1010.0 |
| 20260904015655 | 63 | 179 | 0.0 | 0.0 | 0.00 | 0.00 | 0.00 | 99 | 1009.9 |
| 20260904015155 | 63 | 178 | 0.0 | 0.0 | 0.00 | 0.00 | 0.00 | 99 | 1009.9 |
| 20260904014654 | 64 | 178 | 0.0 | 0.0 | 0.00 | 0.00 | 0.00 | 99 | 1010.0 |
| 20260904014149 | 64 | 178 | 0.0 | 0.0 | 0.00 | 0.00 | 0.00 | 99 | 1009.7 |
| 20260904013646 | 64 | 178 | 0.0 | 0.0 | 0.00 | 0.00 | 0.00 | 99 | 1009.9 |
| 20260904013141 | 64 | 178 | 0.0 | 0.0 | 0.00 | 0.00 | 0.00 | 99 | 1009.8 |
| 20260904012637 | 64 | 178 | 0.0 | 0.0 | 0.00 | 0.00 | 0.00 | 99 | 1009.8 |
| 20260904012136 | 64 | 178 | 0.0 | 0.0 | 0.00 | 0.00 | 0.00 | 99 | 1009.5 |
| 20260904011635 | 64 | 178 | 0.0 | 0.0 | 0.00 | 0.00 | 0.00 | 99 | 1009.8 |
| 20260904011131 | 64 | 178 | 0.0 | 0.0 | 0.00 | 0.00 | 0.00 | 99 | 1009.5 |
| 20260904010627 | 64 | 177 | 0.0 | 0.0 | 0.00 | 0.00 | 0.00 | 99 | 1009.6 |
| 20260904010123 | 64 | 178 | 0.0 | 0.0 | 0.00 | 0.00 | 0.00 | 99 | 1009.8 |
| 20260904005618 | 64 | 180 | 0.0 | 0.0 | 0.00 | 0.00 | 0.00 | 99 | 1009.7 |
| 20260904005113 | 64 | 180 | 0.0 | 0.0 | 0.00 | 0.00 | 0.00 | 99 | 1010.0 |
| 20260904004609 | 65 | 180 | 0.0 | 0.0 | 0.00 | 0.00 | 0.00 | 99 | 1009.5 |
| 20260904004108 | 65 | 181 | 0.0 | 0.0 | 0.00 | 0.00 | 0.00 | 99 | 1009.6 |
| 20260904003605 | 65 | 181 | 0.0 | 0.0 | 0.00 | 0.00 | 0.00 | 99 | 1009.7 |
| 20260904003100 | 65 | 179 | 0.0 | 0.0 | 0.00 | 0.00 | 0.00 | 99 | 1009.4 |
| 20260904002556 | 65 | 179 | 0.0 | 0.0 | 0.00 | 0.00 | 0.00 | 99 | 1009.4 |
| 20260904002050 | 66 | 180 | 0.0 | 0.0 | 0.00 | 0.00 | 0.00 | 99 | 1009.4 |
| 20260904001546 | 66 | 179 | 0.0 | 0.0 | 0.00 | 0.00 | 0.00 | 99 | 1009.7 |
| 20260904001044 | 66 | 180 | 0.0 | 0.0 | 0.00 | 0.00 | 0.00 | 99 | 1009.4 |
| 20260904000539 | 66 | 180 | 0.0 | 0.0 | 0.00 | 0.00 | 0.00 | 99 | 1009.5 |
| 20260904000035 | 66 | 181 | 0.0 | 0.0 | 0.00 | 0.00 | 0.00 | 99 | 1009.5 |
| 20260903235530 | 66 | 179 | 0.0 | 0.0 | 0.00 | 0.00 | 0.00 | 99 | 1009.3 |
| 20260903235026 | 67 | 180 | 0.0 | 0.0 | 0.00 | 0.00 | 0.00 | 99 | 1009.5 |
| 20260903234521 | 67 | 182 | 0.0 | 0.0 | 0.00 | 0.00 | 0.00 | 99 | 1009.3 |
| 20260903234016 | 68 | 188 | 0.0 | 0.0 | 0.00 | 0.00 | 0.00 | 99 | 1009.7 |
| 20260903233513 | 68 | 178 | 0.0 | 0.0 | 0.00 | 0.00 | 0.00 | 98 | 1009.3 |
| 20260903233008 | 68 | 184 | 0.0 | 0.0 | 0.00 | 0.00 | 0.00 | 98 | 1009.3 |
| 20260903232503 | 69 | 180 | 0.0 | 0.0 | 0.00 | 0.00 | 0.00 | 97 | 1009.2 |
| 20260903232003 | 69 | 180 | 0.0 | 0.0 | 0.00 | 0.00 | 0.00 | 96 | 1009.1 |
| 20260903231457 | 70 | 180 | 0.0 | 0.0 | 0.00 | 0.00 | 0.00 | 95 | 1009.4 |
| 20260903230951 | 70 | 180 | 0.0 | 0.0 | 0.00 | 0.00 | 0.00 | 94 | 1009.1 |
| 20260903230448 | 71 | 180 | 0.0 | 0.0 | 0.00 | 0.00 | 0.00 | 93 | 1009.1 |
| 20260903225944 | 71 | 180 | 0.0 | 0.0 | 0.00 | 0.00 | 0.00 | 90 | 1009.1 |
| 20260903225439 | 72 | 180 | 0.0 | 0.0 | 0.00 | 0.00 | 0.00 | 89 | 1009.2 |
| 20260903224935 | 72 | 180 | 0.0 | 0.0 | 0.00 | 0.00 | 0.00 | 89 | 1009.2 |
| 20260903224431 | 73 | 180 | 0.0 | 0.0 | 0.00 | 0.00 | 0.00 | 89 | 1009.0 |
| 20260903223927 | 73 | 179 | 0.0 | 0.0 | 0.00 | 0.00 | 0.00 | 87 | 1009.2 |
| 20260903223426 | 73 | 180 | 0.0 | 0.0 | 0.00 | 0.00 | 0.00 | 86 | 1009.2 |
| 20260903222919 | 73 | 180 | 0.0 | 0.0 | 0.00 | 0.00 | 0.00 | 85 | 1009.4 |
| 20260903222415 | 73 | 180 | 0.0 | 0.0 | 0.00 | 0.00 | 0.00 | 85 | 1009.3 |
| 20260903221909 | 73 | 179 | 0.0 | 0.0 | 0.00 | 0.00 | 0.00 | 84 | 1009.1 |
| 20260903221409 | 73 | 179 | 0.0 | 0.0 | 0.00 | 0.00 | 0.00 | 84 | 1009.2 |
| 20260903220906 | 73 | 181 | 0.0 | 0.0 | 0.00 | 0.00 | 0.00 | 84 | 1009.1 |
| 20260903220400 | 73 | 178 | 0.0 | 0.0 | 0.00 | 0.00 | 0.00 | 84 | 1009.2 |
| 20260903215857 | 73 | 178 | 0.0 | 0.0 | 0.00 | 0.00 | 0.00 | 84 | 1008.9 |
| 20260903215355 | 73 | 179 | 0.0 | 0.0 | 0.00 | 0.00 | 0.00 | 82 | 1009.1 |
| 20260903214853 | 73 | 178 | 0.0 | 0.0 | 0.00 | 0.00 | 0.00 | 82 | 1009.1 |
| 20260903214349 | 74 | 182 | 0.0 | 0.0 | 0.00 | 0.00 | 0.00 | 81 | 1008.9 |
| 20260903213848 | 74 | 177 | 0.0 | 0.0 | 0.00 | 0.00 | 0.00 | 81 | 1009.1 |
| 20260903213343 | 74 | 181 | 0.0 | 0.0 | 0.00 | 0.00 | 0.00 | 81 | 1009.0 |
| 20260903212840 | 74 | 183 | 0.0 | 0.0 | 0.00 | 0.00 | 0.00 | 81 | 1009.2 |
| 20260903212336 | 74 | 180 | 0.0 | 0.0 | 0.00 | 0.00 | 0.00 | 82 | 1009.2 |
| 20260903211835 | 75 | 181 | 0.0 | 0.0 | 0.00 | 0.00 | 0.00 | 82 | 1009.2 |
| 20260903211331 | 75 | 206 | 0.0 | 0.0 | 0.00 | 0.00 | 0.00 | 80 | 1009.1 |
| 20260903210827 | 75 | 175 | 0.0 | 0.9 | 0.00 | 0.00 | 0.00 | 79 | 1009.0 |
| 20260903210322 | 76 | 181 | 0.0 | 0.0 | 0.00 | 0.00 | 0.00 | 81 | 1009.2 |
| 20260903205821 | 76 | 185 | 0.0 | 0.0 | 0.00 | 0.00 | 0.00 | 81 | 1009.1 |
| 20260903205316 | 77 | 246 | 0.9 | 0.9 | 0.00 | 0.00 | 0.00 | 80 | 1009.3 |
| 20260903204811 | 77 | 191 | 1.7 | 1.7 | 0.00 | 0.00 | 0.00 | 76 | 1009.3 |
| 20260903204308 | 78 | 183 | 0.0 | 0.0 | 0.00 | 0.00 | 0.00 | 80 | 1009.2 |
| 20260903203803 | 78 | 233 | 0.0 | 0.0 | 0.00 | 0.00 | 0.00 | 81 | 1009.3 |
| 20260903203259 | 77 | 197 | 0.0 | 0.0 | 0.00 | 0.00 | 0.00 | 81 | 1009.3 |
| 20260903202757 | 78 | 259 | 0.9 | 1.7 | 0.00 | 0.00 | 0.00 | 81 | 1009.0 |
| 20260903202254 | 78 | 119 | 0.9 | 0.9 | 0.00 | 0.00 | 0.00 | 80 | 1009.0 |
| 20260903201753 | 77 | 221 | 0.9 | 0.9 | 0.00 | 0.00 | 0.00 | 82 | 1009.0 |
| 20260903201249 | 78 | 182 | 0.9 | 0.9 | 0.00 | 0.00 | 0.00 | 83 | 1008.9 |
| 20260903200747 | 77 | 217 | 0.9 | 0.9 | 0.00 | 0.00 | 0.00 | 83 | 1009.0 |
| 20260903200243 | 77 | 211 | 0.0 | 0.9 | 0.00 | 0.00 | 0.00 | 82 | 1009.0 |
| 20260903195738 | 77 | 193 | 0.0 | 0.0 | 0.00 | 0.00 | 0.00 | 85 | 1009.1 |
| 20260903195234 | 78 | 207 | 1.7 | 1.7 | 0.00 | 0.00 | 0.00 | 82 | 1008.9 |
| 20260903194733 | 78 | 252 | 1.7 | 1.7 | 0.00 | 0.00 | 0.00 | 82 | 1009.0 |
| 20260903194229 | 77 | 182 | 0.0 | 0.9 | 0.00 | 0.00 | 0.00 | 85 | 1009.3 |
| 20260903193724 | 78 | 283 | 0.9 | 1.7 | 0.00 | 0.00 | 0.00 | 83 | 1009.4 |
| 20260903193220 | 77 | 191 | 0.9 | 0.9 | 0.00 | 0.00 | 0.00 | 84 | 1009.4 |
| 20260903192716 | 77 | 204 | 0.9 | 0.9 | 0.00 | 0.00 | 0.00 | 86 | 1009.2 |
| 20260903192211 | 77 | 207 | 0.0 | 0.9 | 0.00 | 0.00 | 0.00 | 84 | 1009.2 |
| 20260903191707 | 75 | 186 | 0.0 | 0.0 | 0.00 | 0.00 | 0.00 | 88 | 1009.4 |
| 20260903191202 | 76 | 208 | 0.0 | 0.0 | 0.00 | 0.00 | 0.00 | 87 | 1009.3 |
| 20260903190657 | 78 | 197 | 0.0 | 0.0 | 0.00 | 0.00 | 0.00 | 85 | 1009.0 |
| 20260903190157 | 80 | 186 | 0.0 | 0.0 | 0.00 | 0.00 | 0.00 | 82 | 1009.6 |
| 20260903185652 | 78 | 207 | 0.0 | 0.0 | 0.00 | 0.00 | 0.00 | 84 | 1009.4 |
| 20260903185147 | 78 | 188 | 0.0 | 0.9 | 0.00 | 0.00 | 0.00 | 86 | 1009.5 |
| 20260903184643 | 78 | 188 | 0.9 | 0.9 | 0.00 | 0.00 | 0.00 | 87 | 1009.5 |
| 20260903184139 | 77 | 186 | 0.0 | 0.0 | 0.00 | 0.00 | 0.00 | 85 | 1009.8 |
| 20260903183637 | 80 | 202 | 0.0 | 0.0 | 0.00 | 0.00 | 0.00 | 83 | 1009.8 |
| 20260903183133 | 80 | 237 | 1.7 | 1.7 | 0.00 | 0.00 | 0.00 | 82 | 1009.7 |
| 20260903182631 | 79 | 209 | 1.7 | 1.7 | 0.00 | 0.00 | 0.00 | 82 | 1009.6 |
| 20260903182128 | 77 | 193 | 0.0 | 0.9 | 0.00 | 0.00 | 0.00 | 86 | 1009.6 |
| 20260903181626 | 75 | 163 | 0.9 | 0.9 | 0.00 | 0.00 | 0.00 | 90 | 1009.5 |
| 20260903181121 | 75 | 186 | 0.0 | 0.9 | 0.00 | 0.00 | 0.00 | 91 | 1009.9 |
| 20260903180616 | 75 | 195 | 0.0 | 0.9 | 0.00 | 0.00 | 0.00 | 90 | 1009.8 |
| 20260903180111 | 75 | 178 | 0.0 | 0.9 | 0.00 | 0.00 | 0.00 | 91 | 1009.7 |
| 20260903175610 | 75 | 187 | 0.0 | 0.0 | 0.00 | 0.00 | 0.00 | 91 | 1009.8 |
| 20260903175109 | 76 | 158 | 0.0 | 0.9 | 0.00 | 0.00 | 0.00 | 89 | 1009.5 |
| 20260903174604 | 76 | 182 | 0.0 | 0.0 | 0.00 | 0.00 | 0.00 | 89 | 1009.5 |
| 20260903174059 | 76 | 182 | 0.0 | 0.0 | 0.00 | 0.00 | 0.00 | 89 | 1009.7 |
| 20260903173554 | 77 | 161 | 0.0 | 0.9 | 0.00 | 0.00 | 0.00 | 86 | 1009.5 |
| 20260903173050 | 78 | 181 | 0.0 | 0.0 | 0.00 | 0.00 | 0.00 | 85 | 1009.7 |
| 20260903172544 | 80 | 285 | 1.7 | 2.6 | 0.00 | 0.00 | 0.00 | 84 | 1009.6 |
| 20260903172040 | 78 | 199 | 0.9 | 0.9 | 0.00 | 0.00 | 0.00 | 86 | 1010.0 |
| 20260903171535 | 77 | 211 | 0.9 | 0.9 | 0.00 | 0.00 | 0.00 | 89 | 1009.9 |
| 20260903171030 | 76 | 202 | 0.9 | 0.9 | 0.00 | 0.00 | 0.00 | 94 | 1010.1 |
| 20260903170523 | 75 | 189 | 0.0 | 0.0 | 0.00 | 0.00 | 0.00 | 93 | 1009.7 |
| 20260903170019 | 75 | 193 | 0.0 | 0.9 | 0.00 | 0.00 | 0.00 | 92 | 1009.9 |
| 20260903165511 | 75 | 167 | 0.9 | 0.9 | 0.00 | 0.00 | 0.00 | 88 | 1009.7 |
| 20260903165007 | 76 | 187 | 0.0 | 0.0 | 0.00 | 0.00 | 0.00 | 88 | 1009.9 |
| 20260903164507 | 77 | 199 | 1.7 | 2.6 | 0.00 | 0.00 | 0.00 | 84 | 1009.8 |
| 20260903164002 | 76 | 213 | 0.9 | 0.9 | 0.00 | 0.00 | 0.00 | 86 | 1009.8 |
| 20260903163457 | 76 | 183 | 0.0 | 0.9 | 0.00 | 0.00 | 0.00 | 88 | 1009.8 |
| 20260903162953 | 75 | 192 | 0.9 | 0.9 | 0.00 | 0.00 | 0.00 | 89 | 1010.2 |
| 20260903162449 | 74 | 145 | 0.0 | 0.0 | 0.00 | 0.00 | 0.00 | 94 | 1010.2 |
| 20260903161944 | 73 | 175 | 0.0 | 0.9 | 0.00 | 0.00 | 0.00 | 94 | 1010.4 |
| 20260903161440 | 73 | 192 | 0.0 | 0.9 | 0.00 | 0.00 | 0.00 | 94 | 1010.2 |
| 20260903160936 | 72 | 189 | 0.9 | 1.7 | 0.00 | 0.00 | 0.00 | 94 | 1010.3 |
| 20260903160434 | 72 | 198 | 0.9 | 0.9 | 0.00 | 0.00 | 0.00 | 95 | 1010.7 |
| 20260903155933 | 73 | 194 | 0.0 | 0.9 | 0.00 | 0.00 | 0.00 | 95 | 1010.5 |
| 20260903155428 | 73 | 181 | 0.9 | 0.9 | 0.00 | 0.00 | 0.00 | 94 | 1010.5 |
| 20260903154924 | 73 | 179 | 0.0 | 0.9 | 0.00 | 0.00 | 0.00 | 95 | 1010.5 |
| 20260903154420 | 73 | 189 | 0.9 | 0.9 | 0.00 | 0.00 | 0.00 | 97 | 1010.7 |
| 20260903153915 | 72 | 189 | 0.0 | 0.0 | 0.00 | 0.00 | 0.00 | 98 | 1010.5 |
| 20260903153410 | 71 | 182 | 0.0 | 0.0 | 0.00 | 0.00 | 0.00 | 98 | 1010.5 |
| 20260903152907 | 72 | 183 | 0.0 | 0.0 | 0.00 | 0.00 | 0.00 | 97 | 1010.5 |
| 20260903152403 | 72 | 182 | 0.0 | 0.0 | 0.00 | 0.00 | 0.00 | 96 | 1010.7 |
| 20260903151858 | 72 | 179 | 1.7 | 1.7 | 0.00 | 0.00 | 0.00 | 95 | 1010.7 |
| 20260903151352 | 72 | 188 | 0.0 | 0.9 | 0.00 | 0.00 | 0.00 | 96 | 1010.5 |
| 20260903150852 | 72 | 181 | 0.9 | 1.7 | 0.00 | 0.00 | 0.00 | 97 | 1010.4 |
| 20260903150347 | 71 | 180 | 0.0 | 0.0 | 0.00 | 0.00 | 0.00 | 99 | 1010.4 |
| 20260903145842 | 71 | 181 | 0.0 | 0.0 | 0.00 | 0.00 | 0.00 | 99 | 1010.7 |
| 20260903145337 | 71 | 183 | 0.0 | 0.0 | 0.00 | 0.00 | 0.00 | 99 | 1010.4 |
| 20260903144836 | 70 | 187 | 0.0 | 0.0 | 0.00 | 0.00 | 0.00 | 99 | 1010.3 |
| 20260903144332 | 71 | 180 | 0.0 | 0.0 | 0.00 | 0.00 | 0.00 | 99 | 1010.4 |
| 20260903143827 | 70 | 181 | 0.0 | 0.0 | 0.00 | 0.00 | 0.00 | 99 | 1010.4 |
| 20260903143324 | 70 | 181 | 0.0 | 0.0 | 0.00 | 0.00 | 0.00 | 99 | 1010.7 |
| 20260903142819 | 70 | 178 | 0.0 | 0.0 | 0.00 | 0.00 | 0.00 | 99 | 1010.4 |
| 20260903142315 | 70 | 177 | 0.0 | 0.0 | 0.00 | 0.00 | 0.00 | 99 | 1010.3 |
| 20260903141811 | 70 | 189 | 0.0 | 0.0 | 0.00 | 0.00 | 0.00 | 99 | 1010.4 |
| 20260903141307 | 69 | 182 | 0.0 | 0.0 | 0.00 | 0.00 | 0.00 | 99 | 1010.3 |
| 20260903140806 | 69 | 181 | 0.0 | 0.0 | 0.00 | 0.00 | 0.00 | 99 | 1010.4 |
| 20260903140301 | 69 | 178 | 0.0 | 0.0 | 0.00 | 0.00 | 0.00 | 99 | 1010.4 |
| 20260903135757 | 68 | 188 | 0.0 | 0.0 | 0.00 | 0.00 | 0.00 | 99 | 1010.4 |
| 20260903135253 | 68 | 180 | 0.0 | 0.0 | 0.00 | 0.00 | 0.00 | 99 | 1010.4 |
| 20260903134751 | 68 | 181 | 0.0 | 0.0 | 0.00 | 0.00 | 0.00 | 99 | 1010.3 |
| 20260903134247 | 68 | 177 | 0.0 | 0.0 | 0.00 | 0.00 | 0.00 | 99 | 1010.5 |
| 20260903133744 | 68 | 170 | 0.0 | 0.0 | 0.00 | 0.00 | 0.00 | 99 | 1010.3 |
| 20260903133240 | 68 | 179 | 0.0 | 0.0 | 0.00 | 0.00 | 0.00 | 99 | 1010.1 |
| 20260903132735 | 67 | 180 | 0.0 | 0.0 | 0.00 | 0.00 | 0.00 | 99 | 1010.4 |
| 20260903132229 | 67 | 178 | 0.0 | 0.0 | 0.00 | 0.00 | 0.00 | 99 | 1010.3 |
| 20260903131724 | 67 | 182 | 0.0 | 0.0 | 0.00 | 0.00 | 0.00 | 99 | 1010.2 |
| 20260903131219 | 67 | 181 | 0.0 | 0.0 | 0.00 | 0.00 | 0.00 | 99 | 1010.2 |
| 20260903130713 | 67 | 174 | 0.0 | 0.0 | 0.00 | 0.00 | 0.00 | 99 | 1010.2 |
| 20260903130208 | 67 | 178 | 0.0 | 0.0 | 0.00 | 0.00 | 0.00 | 99 | 1010.4 |
| 20260903125706 | 66 | 178 | 0.0 | 0.0 | 0.00 | 0.00 | 0.00 | 99 | 1010.5 |
| 20260903125202 | 65 | 175 | 0.0 | 0.0 | 0.00 | 0.00 | 0.00 | 99 | 1010.8 |
| 20260903124701 | 65 | 178 | 0.0 | 0.0 | 0.00 | 0.00 | 0.00 | 99 | 1010.8 |
| 20260903124156 | 64 | 173 | 0.0 | 0.0 | 0.00 | 0.00 | 0.00 | 99 | 1010.7 |
| 20260903123655 | 64 | 164 | 0.0 | 0.0 | 0.00 | 0.00 | 0.00 | 99 | 1010.8 |
| 20260903123154 | 64 | 181 | 0.0 | 0.0 | 0.00 | 0.00 | 0.00 | 99 | 1010.8 |
| 20260903122654 | 64 | 184 | 0.0 | 0.0 | 0.00 | 0.00 | 0.00 | 99 | 1010.9 |
| 20260903122149 | 64 | 180 | 0.0 | 0.0 | 0.00 | 0.00 | 0.00 | 99 | 1011.0 |
| 20260903121647 | 64 | 179 | 0.0 | 0.0 | 0.00 | 0.00 | 0.00 | 99 | 1011.0 |
| 20260903121144 | 64 | 179 | 0.0 | 0.0 | 0.00 | 0.00 | 0.00 | 99 | 1011.0 |
| 20260903120642 | 63 | 180 | 0.0 | 0.0 | 0.00 | 0.00 | 0.00 | 99 | 1011.0 |
| 20260903120137 | 63 | 183 | 0.0 | 0.0 | 0.00 | 0.00 | 0.00 | 99 | 1010.8 |
| 20260903115635 | 63 | 183 | 0.0 | 0.0 | 0.00 | 0.00 | 0.00 | 99 | 1010.9 |
| 20260903115131 | 63 | 180 | 0.0 | 0.0 | 0.00 | 0.00 | 0.00 | 99 | 1010.9 |
| 20260903114626 | 62 | 183 | 0.0 | 0.0 | 0.00 | 0.00 | 0.00 | 99 | 1011.0 |
| 20260903114121 | 62 | 183 | 0.0 | 0.0 | 0.00 | 0.00 | 0.00 | 99 | 1010.9 |
| 20260903113616 | 62 | 183 | 0.0 | 0.0 | 0.00 | 0.00 | 0.00 | 99 | 1010.9 |
| 20260903113113 | 62 | 180 | 0.0 | 0.0 | 0.00 | 0.00 | 0.00 | 99 | 1010.9 |
| 20260903112609 | 62 | 183 | 0.0 | 0.0 | 0.00 | 0.00 | 0.00 | 99 | 1011.0 |
| 20260903112108 | 62 | 180 | 0.0 | 0.0 | 0.00 | 0.00 | 0.00 | 99 | 1011.0 |
| 20260903111608 | 62 | 183 | 0.0 | 0.0 | 0.00 | 0.00 | 0.00 | 99 | 1011.0 |
| 20260903111103 | 62 | 183 | 0.0 | 0.0 | 0.00 | 0.00 | 0.00 | 99 | 1011.1 |
| 20260903110559 | 62 | 179 | 0.0 | 0.0 | 0.00 | 0.00 | 0.00 | 99 | 1011.2 |
| 20260903110054 | 62 | 180 | 0.0 | 0.0 | 0.00 | 0.00 | 0.00 | 99 | 1011.2 |
| 20260903105549 | 62 | 183 | 0.0 | 0.0 | 0.00 | 0.00 | 0.00 | 99 | 1011.1 |
| 20260903105044 | 62 | 177 | 0.0 | 0.0 | 0.00 | 0.00 | 0.00 | 99 | 1011.4 |
| 20260903104543 | 62 | 179 | 0.0 | 0.0 | 0.00 | 0.00 | 0.00 | 99 | 1011.3 |
| 20260903104039 | 62 | 178 | 0.0 | 0.0 | 0.00 | 0.00 | 0.00 | 99 | 1011.0 |
| 20260903103535 | 62 | 183 | 0.0 | 0.0 | 0.00 | 0.00 | 0.00 | 99 | 1011.2 |
| 20260903103032 | 62 | 181 | 0.0 | 0.0 | 0.00 | 0.00 | 0.00 | 99 | 1011.0 |
| 20260903102526 | 62 | 183 | 0.0 | 0.0 | 0.00 | 0.00 | 0.00 | 99 | 1011.2 |
| 20260903102026 | 62 | 183 | 0.0 | 0.0 | 0.00 | 0.00 | 0.00 | 99 | 1011.1 |
| 20260903101520 | 62 | 180 | 0.0 | 0.0 | 0.00 | 0.00 | 0.00 | 99 | 1011.1 |
| 20260903101016 | 62 | 180 | 0.0 | 0.0 | 0.00 | 0.00 | 0.00 | 99 | 1010.9 |
| 20260903100511 | 62 | 183 | 0.0 | 0.0 | 0.00 | 0.00 | 0.00 | 99 | 1011.2 |
| 20260903100009 | 62 | 179 | 0.0 | 0.0 | 0.00 | 0.00 | 0.00 | 99 | 1011.2 |
| 20260903095502 | 62 | 180 | 0.0 | 0.0 | 0.00 | 0.00 | 0.00 | 99 | 1010.9 |
| 20260903094957 | 62 | 180 | 0.0 | 0.0 | 0.00 | 0.00 | 0.00 | 99 | 1011.0 |
| 20260903094456 | 62 | 180 | 0.0 | 0.0 | 0.00 | 0.00 | 0.00 | 99 | 1010.8 |
| 20260903093953 | 62 | 183 | 0.0 | 0.0 | 0.00 | 0.00 | 0.00 | 99 | 1010.8 |
| 20260903093448 | 62 | 183 | 0.0 | 0.0 | 0.00 | 0.00 | 0.00 | 99 | 1010.5 |
| 20260903092944 | 62 | 183 | 0.0 | 0.0 | 0.00 | 0.00 | 0.00 | 99 | 1010.8 |
| 20260903092443 | 62 | 179 | 0.0 | 0.0 | 0.00 | 0.00 | 0.00 | 99 | 1010.8 |
| 20260903091943 | 62 | 184 | 0.0 | 0.0 | 0.00 | 0.00 | 0.00 | 99 | 1010.5 |
| 20260903091440 | 62 | 183 | 0.0 | 0.0 | 0.00 | 0.00 | 0.00 | 99 | 1010.8 |
| 20260903090936 | 62 | 183 | 0.0 | 0.0 | 0.00 | 0.00 | 0.00 | 99 | 1010.7 |
| 20260903090432 | 62 | 184 | 0.0 | 0.0 | 0.00 | 0.00 | 0.00 | 99 | 1010.7 |
| 20260903085930 | 62 | 180 | 0.0 | 0.0 | 0.00 | 0.00 | 0.00 | 99 | 1010.8 |
| 20260903085429 | 62 | 183 | 0.0 | 0.0 | 0.00 | 0.00 | 0.00 | 99 | 1011.0 |
| 20260903084929 | 62 | 183 | 0.0 | 0.0 | 0.00 | 0.00 | 0.00 | 99 | 1010.9 |
| 20260903084427 | 62 | 180 | 0.0 | 0.0 | 0.00 | 0.00 | 0.00 | 99 | 1011.0 |
| 20260903083922 | 62 | 179 | 0.0 | 0.0 | 0.00 | 0.00 | 0.00 | 99 | 1010.9 |
| 20260903083419 | 62 | 180 | 0.0 | 0.0 | 0.00 | 0.00 | 0.00 | 99 | 1010.9 |
| 20260903082917 | 62 | 179 | 0.0 | 0.0 | 0.00 | 0.00 | 0.00 | 99 | 1010.9 |
| 20260903082413 | 62 | 177 | 0.0 | 0.0 | 0.00 | 0.00 | 0.00 | 99 | 1011.2 |
| 20260903081908 | 62 | 179 | 0.0 | 0.0 | 0.00 | 0.00 | 0.00 | 99 | 1011.2 |
| 20260903081403 | 62 | 179 | 0.0 | 0.0 | 0.00 | 0.00 | 0.00 | 99 | 1010.9 |
| 20260903080859 | 62 | 181 | 0.0 | 0.0 | 0.00 | 0.00 | 0.00 | 99 | 1011.0 |
| 20260903080356 | 62 | 183 | 0.0 | 0.0 | 0.00 | 0.00 | 0.00 | 99 | 1010.9 |
| 20260903075856 | 62 | 183 | 0.0 | 0.0 | 0.00 | 0.00 | 0.00 | 99 | 1011.0 |
| 20260903075351 | 62 | 183 | 0.0 | 0.0 | 0.00 | 0.00 | 0.00 | 99 | 1010.8 |
| 20260903074850 | 62 | 184 | 0.0 | 0.0 | 0.00 | 0.00 | 0.00 | 99 | 1011.0 |
| 20260903074345 | 62 | 183 | 0.0 | 0.0 | 0.00 | 0.00 | 0.00 | 99 | 1010.9 |
| 20260903073841 | 62 | 179 | 0.0 | 0.0 | 0.00 | 0.00 | 0.00 | 99 | 1011.1 |
| 20260903073335 | 62 | 180 | 0.0 | 0.0 | 0.00 | 0.00 | 0.00 | 99 | 1011.1 |
| 20260903072831 | 62 | 183 | 0.0 | 0.0 | 0.00 | 0.00 | 0.00 | 99 | 1011.2 |
| 20260903072327 | 62 | 179 | 0.0 | 0.0 | 0.00 | 0.00 | 0.00 | 99 | 1011.2 |
| 20260903071824 | 61 | 179 | 0.0 | 0.0 | 0.00 | 0.00 | 0.00 | 99 | 1010.9 |
| 20260903071319 | 61 | 183 | 0.0 | 0.0 | 0.00 | 0.00 | 0.00 | 99 | 1010.8 |
| 20260903070815 | 62 | 180 | 0.0 | 0.0 | 0.00 | 0.00 | 0.00 | 99 | 1010.8 |
| 20260903070310 | 62 | 183 | 0.0 | 0.0 | 0.00 | 0.00 | 0.00 | 99 | 1010.8 |
| 20260903065805 | 62 | 178 | 0.0 | 0.0 | 0.00 | 0.00 | 0.00 | 99 | 1010.9 |
| 20260903065306 | 61 | 179 | 0.0 | 0.0 | 0.00 | 0.00 | 0.00 | 99 | 1011.0 |
| 20260903064803 | 61 | 183 | 0.0 | 0.0 | 0.00 | 0.00 | 0.00 | 99 | 1010.9 |
| 20260903064259 | 61 | 175 | 0.0 | 0.0 | 0.00 | 0.00 | 0.00 | 99 | 1011.0 |
| 20260903063754 | 61 | 181 | 0.0 | 0.0 | 0.00 | 0.00 | 0.00 | 99 | 1011.1 |
| 20260903063249 | 61 | 183 | 0.0 | 0.0 | 0.00 | 0.00 | 0.00 | 99 | 1010.9 |
| 20260903062746 | 61 | 180 | 0.0 | 0.0 | 0.00 | 0.00 | 0.00 | 99 | 1010.9 |
| 20260903062244 | 61 | 179 | 0.0 | 0.0 | 0.00 | 0.00 | 0.00 | 99 | 1010.9 |
| 20260903061741 | 61 | 176 | 0.0 | 0.0 | 0.00 | 0.00 | 0.00 | 99 | 1010.8 |
| 20260903061240 | 61 | 179 | 0.0 | 0.0 | 0.00 | 0.00 | 0.00 | 99 | 1010.8 |
| 20260903060736 | 61 | 178 | 0.0 | 0.0 | 0.00 | 0.00 | 0.00 | 99 | 1010.8 |
| 20260903060236 | 61 | 178 | 0.0 | 0.0 | 0.00 | 0.00 | 0.00 | 99 | 1010.8 |
| 20260903055733 | 61 | 179 | 0.0 | 0.0 | 0.00 | 0.00 | 0.00 | 99 | 1010.8 |
| 20260903055232 | 61 | 177 | 0.0 | 0.0 | 0.00 | 0.00 | 0.00 | 99 | 1010.9 |
| 20260903054727 | 61 | 179 | 0.0 | 0.0 | 0.00 | 0.00 | 0.00 | 99 | 1010.8 |
| 20260903054222 | 61 | 180 | 0.0 | 0.0 | 0.00 | 0.00 | 0.00 | 99 | 1010.9 |
| 20260903053719 | 61 | 178 | 0.0 | 0.0 | 0.00 | 0.00 | 0.00 | 99 | 1010.8 |
| 20260903053213 | 61 | 178 | 0.0 | 0.0 | 0.00 | 0.00 | 0.00 | 99 | 1010.9 |